This is the latest recevied weather packets stored in our database for station/object KC3QLX. If no packets are shown the sender has not sent any weather packets the latest 10 day(s).
| Time | Temp. | Humidity | Pressure | Rain* | Wind** | Luminosity | Snow |
|---|---|---|---|---|---|---|---|
| 1777739584 | 13.33° C | 48% | 1012.9 hPa | 0 mm | - | 802 W/m² | - |
| 1777739282 | 12.78° C | 47% | 1013.3 hPa | 0 mm | - | 792 W/m² | - |
| 1777738978 | 13.33° C | 48% | 1013 hPa | 0 mm | - | 550 W/m² | - |
| 1777738675 | 12.78° C | 54% | 1013 hPa | 0 mm | - | 773 W/m² | - |
| 1777738372 | 12.22° C | 50% | 1013.4 hPa | 0 mm | - | 766 W/m² | - |
| 1777738070 | 11.67° C | 52% | 1013.1 hPa | 0 mm | - | 831 W/m² | - |
| 1777737769 | 11.67° C | 54% | 1013 hPa | 0 mm | - | 225 W/m² | - |
| 1777737467 | 11.67° C | 53% | 1013 hPa | 0 mm | - | 315 W/m² | - |
| 1777737165 | 11.67° C | 54% | 1013 hPa | 0 mm | - | 856 W/m² | - |
| 1777736859 | 11.67° C | 55% | 1013.4 hPa | 0 mm | - | 420 W/m² | - |
| 1777736246 | 11.11° C | 60% | 1013.3 hPa | 0 mm | - | 912 W/m² | - |
| 1777735943 | 11.67° C | 57% | 1013.3 hPa | 0 mm | - | 630 W/m² | - |
| 1777735641 | 11.67° C | 54% | 1013 hPa | 0 mm | - | 673 W/m² | - |
| 1777735338 | 11.67° C | 61% | 1013.3 hPa | 0 mm | - | 950 W/m² | - |
| 1777735035 | 11.67° C | 55% | 1013.1 hPa | 0 mm | - | 903 W/m² | - |
| 1777734732 | 11.11° C | 54% | 1013.3 hPa | 0 mm | - | 704 W/m² | - |
| 1777734430 | 11.67° C | 61% | 1013.4 hPa | 0 mm | - | 937 W/m² | - |
| 1777734126 | 11.11° C | 59% | 1013.1 hPa | 0 mm | - | 920 W/m² | - |
| 1777733823 | 11.67° C | 60% | 1013.3 hPa | 0 mm | - | 868 W/m² | - |
| 1777733520 | 11.11° C | 60% | 1013.3 hPa | 0 mm | - | 877 W/m² | - |
| 1777733216 | 11.11° C | 66% | 1013 hPa | 0 mm | - | 846 W/m² | - |
| 1777732913 | 10.56° C | 64% | 1013 hPa | 0 mm | - | 886 W/m² | - |
| 1777732609 | 10.56° C | 69% | 1013.1 hPa | 0 mm | - | 827 W/m² | - |
| 1777732307 | 10° C | 66% | 1013 hPa | 0 mm | - | 810 W/m² | - |
| 1777732003 | 10.56° C | 68% | 1013.4 hPa | 0 mm | - | 824 W/m² | - |
* Rain latest hour (hover to see other rain measurements)
** Current wind speed in m/s (hover to see current wind gust speed)